Hourly Data Report for December 11, 2020

L'ASSOMPTION
QUEBEC
Current Station Operator: ECCC - MSC

45°48'34.000" N
73°26'05.000" W
21.00 m
7014160
71524
WEW

Download Data

Hourly Data (December 2020)
Hourly Data Report for December 11, 2020
TIME
LST
Temp Definition
°C
Dew Point Definition
°C
Rel Hum Definition
%
Precip. Amount Definition
mm

Wind Dir Definition
10's deg

Wind Spd Definition
km/h
Visibility Definition
km
Stn Press Definition
kPa
Hmdx Definition


Wind Chill Definition


Weather Definition


00:00 -1.9 -4.0 86 0.0 20 3   101.89   -3 LegendNANA
01:00 -1.9 -3.6 88 0.0 16 3   101.85   -3 LegendNANA
02:00 -1.0 -2.8 88 0.0 14 4   101.86   -2 LegendNANA
03:00 -0.6 -2.7 86 0.0 15 2   101.84   -1 LegendNANA
04:00 -0.4 -3.3 81 0.0 14 5   101.77   -2 LegendNANA
05:00 -0.5 -3.0 83 0.0 12 5   101.67   -2 LegendNANA
06:00 -0.3 -2.4 86 0.0 8 4   101.65   -2 LegendNANA
07:00 -0.1 -2.2 86 0.0 8 2   101.63   -1 LegendNANA
08:00 0.0 -2.1 86 0.0 3 2   101.65   -1 LegendNANA
09:00 0.2 -1.9 86 0.0 7 5   101.58     LegendNANA
10:00 1.3 -1.2 84 0.0 8 3   101.51     LegendNANA
11:00 2.3 -0.5 82 0.0 5 2   101.47     LegendNANA
12:00 1.4 -1.6 80 0.0 35 6   101.42     LegendNANA
13:00 2.0 -1.1 80 0.0 1 4   101.38     LegendNANA
14:00 2.1 -1.2 79 0.0 31 5   101.40     LegendNANA
15:00 1.9 -1.2 80 0.0 35 3   101.43     LegendNANA
16:00 1.8 -1.1 81 0.0 1 5   101.51     LegendNANA
17:00 1.4 -1.1 83 0.0 36 2   101.56     LegendNANA
18:00 0.8 -1.1 87 0.0 33 6   101.64     LegendNANA
19:00 0.8 -1.1 87 0.0 35 4   101.72     LegendNANA
20:00 0.8 -1.2 87 0.0 36 5   101.76     LegendNANA
21:00 0.5 -1.5 87 0.0 1 6   101.79     LegendNANA
22:00 0.1 -1.8 87 0.0 34 2   101.87     LegendNANA
23:00 -0.2 -1.8 89 0.0 35 2   101.89   -1 LegendNANA

Notes on Data Quality.

Legend

  • E = Estimated
  • M = Missing
  • NA = Not Available*
  • [empty] = Indicates an unobserved value
Date modified: